GW5950 Weather Reports


time (UTC)temp
C
wind
direction
speed
KPH
gust
KPH
rain 1hr
cm
rain 24hr
cm
rain mn
cm
humidity
%
barometer
mb
20260503223658 11 264 9.7 11.3 0.00 0.00 0.00 39 1006.9
20260503223155 11 291 11.3 19.3 0.00 0.00 0.00 39 1006.7
20260503222652 11 334 4.8 27.4 0.00 0.00 0.00 39 1006.7
20260503222149 11 41 4.8 24.1 0.00 0.00 0.00 38 1006.8
20260503221648 11 331 3.2 20.9 0.00 0.00 0.00 38 1006.7
20260503221145 11 333 8.0 25.7 0.00 0.00 0.00 38 1006.5
20260503220641 11 284 8.0 19.3 0.00 0.00 0.00 38 1006.5
20260503220138 11 14 4.8 19.3 0.00 0.00 0.00 41 1006.4
20260503215635 11 288 11.3 17.7 0.00 0.00 0.00 40 1006.5
20260503215131 11 51 6.4 14.5 0.00 0.00 0.00 40 1006.3
20260503214630 11 57 4.8 9.7 0.00 0.00 0.00 40 1006.2
20260503214126 11 332 3.2 14.5 0.00 0.00 0.00 40 1006.2
20260503213620 11 96 0.0 16.1 0.00 0.00 0.00 40 1006.0
20260503213116 11 333 1.6 12.9 0.00 0.00 0.00 41 1006.1
20260503212613 11 312 6.4 25.7 0.00 0.00 0.00 39 1006.0
20260503212110 11 318 6.4 20.9 0.00 0.00 0.00 38 1005.9
20260503211608 11 297 6.4 22.5 0.00 0.00 0.00 39 1006.1
20260503211103 11 344 3.2 25.7 0.00 0.00 0.00 40 1006.0
20260503210600 11 331 3.2 16.1 0.00 0.00 0.00 41 1005.8
20260503210056 11 41 4.8 20.9 0.00 0.00 0.00 40 1005.6
20260503205552 11 60 11.3 12.9 0.00 0.00 0.00 40 1005.6
20260503205049 11 52 8.0 27.4 0.00 0.00 0.00 40 1005.5
20260503204546 11 321 4.8 4.8 0.00 0.00 0.00 42 1005.5
20260503204043 11 259 6.4 6.4 0.00 0.00 0.00 40 1005.3
20260503203540 11 280 6.4 16.1 0.00 0.00 0.00 40 1005.4
20260503203037 11 344 8.0 9.7 0.00 0.00 0.00 41 1005.5
20260503202535 11 73 8.0 22.5 0.00 0.00 0.00 40 1005.3
20260503202033 11 56 4.8 20.9 0.00 0.00 0.00 39 1005.3
20260503201526 11 338 4.8 16.1 0.00 0.00 0.00 40 1005.3
20260503201022 11 307 20.9 24.1 0.00 0.00 0.00 39 1005.2
20260503200518 11 34 11.3 17.7 0.00 0.00 0.00 40 1005.0
20260503200015 11 327 4.8 30.6 0.00 0.00 0.00 40 1005.4
20260503195512 12 18 6.4 12.9 0.00 0.00 0.00 38 1005.0
20260503195009 12 234 6.4 22.5 0.00 0.00 0.00 40 1005.1
20260503194506 12 135 3.2 8.0 0.00 0.00 0.00 40 1005.3
20260503194001 11 188 0.0 17.7 0.00 0.00 0.00 40 1005.2
20260503193457 11 51 6.4 17.7 0.00 0.00 0.00 41 1005.1
20260503192952 11 57 1.6 8.0 0.00 0.00 0.00 42 1005.4
20260503192449 11 60 8.0 17.7 0.00 0.00 0.00 41 1005.2
20260503191944 11 30 6.4 9.7 0.00 0.00 0.00 43 1005.2
20260503191442 11 40 6.4 22.5 0.00 0.00 0.00 43 1005.1
20260503190938 11 0 3.2 24.1 0.00 0.00 0.00 43 1005.5
20260503190436 11 299 20.9 24.1 0.00 0.00 0.00 42 1005.4
20260503185933 11 307 8.0 12.9 0.00 0.00 0.00 44 1005.1
20260503185429 11 293 9.7 19.3 0.00 0.00 0.00 44 1005.2
20260503184928 11 279 8.0 17.7 0.00 0.00 0.00 44 1005.4
20260503184426 11 71 6.4 9.7 0.00 0.00 0.00 44 1005.3
20260503183922 11 300 20.9 24.1 0.00 0.00 0.00 44 1005.5
20260503183418 11 103 8.0 8.0 0.00 0.00 0.00 46 1005.3
20260503182915 11 319 14.5 20.9 0.00 0.00 0.00 45 1005.3
20260503182414 11 313 9.7 19.3 0.00 0.00 0.00 47 1005.3
20260503181911 11 86 4.8 27.4 0.00 0.00 0.00 47 1005.4
20260503181408 11 11 0.0 11.3 0.00 0.00 0.00 48 1005.4
20260503180904 11 317 3.2 8.0 0.00 0.00 0.00 47 1005.4
20260503180403 11 13 3.2 9.7 0.00 0.00 0.00 46 1005.1
20260503175859 11 37 4.8 14.5 0.00 0.00 0.00 46 1005.4
20260503175357 11 37 3.2 11.3 0.00 0.00 0.00 48 1005.4
20260503174852 11 47 12.9 17.7 0.00 0.00 0.00 47 1005.4
20260503174351 10 313 3.2 9.7 0.00 0.00 0.00 50 1005.3
20260503173850 10 26 3.2 24.1 0.00 0.00 0.00 52 1005.5
20260503173347 10 356 4.8 17.7 0.00 0.00 0.00 52 1005.5
20260503172844 10 326 6.4 17.7 0.00 0.00 0.00 52 1005.5
20260503172342 10 298 8.0 17.7 0.00 0.00 0.00 51 1005.2
20260503171837 10 282 9.7 14.5 0.00 0.00 0.00 52 1005.4
20260503171334 10 61 6.4 11.3 0.00 0.00 0.00 51 1005.5
20260503170832 10 314 3.2 8.0 0.00 0.00 0.00 51 1005.3
20260503170328 10 25 3.2 11.3 0.00 0.00 0.00 51 1005.2
20260503150720 7 74 1.6 11.3 0.00 0.00 0.00 71 1005.7
20260503150217 7 283 12.9 14.5 0.00 0.00 0.00 72 1005.7
20260503140141 7 49 3.2 4.8 0.00 0.00 0.00 78 1005.7
20260503131110 7 54 11.3 11.3 0.00 0.00 0.00 79 1005.7
20260503130608 7 34 3.2 19.3 0.00 0.00 0.00 79 1005.7
20260503130106 7 342 1.6 8.0 0.00 0.00 0.00 79 1005.7
20260503110458 5 69 3.2 3.2 0.00 0.00 0.00 84 1006.2
20260503090349 5 291 0.0 3.2 0.00 0.00 0.00 84 1006.6
20260503081317 5 263 0.0 3.2 0.00 0.00 0.00 87 1007.1
20260503080813 5 89 0.0 3.2 0.00 0.00 0.00 87 1007.3
20260503080311 6 119 0.0 1.6 0.00 0.00 0.00 87 1007.4
20260503072747 6 303 0.0 1.6 0.00 0.00 0.00 88 1007.7
20260503072244 6 30 1.6 3.2 0.00 0.00 0.00 88 1008.0
20260503071740 6 89 0.0 0.0 0.00 0.00 0.00 88 1007.7
20260503071237 6 321 0.0 0.0 0.00 0.00 0.00 88 1007.6
20260503070733 6 60 0.0 0.0 0.00 0.00 0.00 88 1007.6
20260503070232 6 329 0.0 3.2 0.00 0.00 0.00 87 1007.6
20260503060156 7 343 1.6 4.8 0.00 0.00 0.00 84 1008.6
20260503054643 7 283 3.2 3.2 0.00 0.00 0.00 82 1009.0
20260503054141 7 294 3.2 4.8 0.00 0.00 0.00 83 1008.7
20260503053639 7 320 3.2 6.4 0.00 0.00 0.00 82 1008.9
20260503053137 7 124 0.0 3.2 0.00 0.00 0.00 83 1008.8
20260503052633 7 85 3.2 3.2 0.00 0.00 0.00 83 1008.7
20260503052130 7 53 1.6 3.2 0.00 0.00 0.00 82 1008.8
20260503051625 7 72 1.6 3.2 0.00 0.00 0.00 81 1008.9
20260503051123 7 19 3.2 3.2 0.00 0.00 0.00 81 1008.9
20260503050619 7 300 1.6 6.4 0.00 0.00 0.00 80 1009.0
20260503050116 7 59 0.0 4.8 0.00 0.00 0.00 81 1009.1
20260503045614 7 42 0.0 3.2 0.00 0.00 0.00 80 1008.9
20260503045110 7 166 3.2 4.8 0.00 0.00 0.00 82 1009.2
20260503044607 7 91 1.6 4.8 0.00 0.00 0.00 83 1009.1
20260503044105 7 76 0.0 1.6 0.00 0.00 0.00 82 1009.0
20260503043600 7 66 0.0 3.2 0.00 0.00 0.00 83 1009.2
20260503043058 7 321 0.0 1.6 0.00 0.00 0.00 81 1009.5
20260503042554 7 77 1.6 1.6 0.00 0.00 0.00 80 1009.4
20260503042050 7 52 0.0 1.6 0.00 0.00 0.00 80 1009.8
20260503041547 7 135 0.0 1.6 0.00 0.00 0.00 81 1009.5
20260503041045 7 74 0.0 3.2 0.00 0.00 0.00 81 1009.6
20260503040542 7 68 1.6 3.2 0.00 0.00 0.00 82 1009.5
20260503040039 7 74 0.0 3.2 0.00 0.15 0.15 81 1009.7
20260503035536 7 71 0.0 1.6 0.00 0.15 0.15 87 1009.7
20260503035034 7 60 0.0 3.2 0.00 0.15 0.15 89 1009.6
20260503034531 7 124 0.0 3.2 0.00 0.15 0.15 92 1009.6
20260503034028 7 160 0.0 3.2 0.00 0.15 0.15 93 1009.6
20260503033525 7 224 0.0 0.0 0.00 0.15 0.15 94 1009.4
20260503033023 7 326 1.6 1.6 0.00 0.15 0.15 96 1009.6
20260503032521 7 93 0.0 1.6 0.00 0.15 0.15 96 1009.7
20260503032019 7 114 0.0 3.2 0.00 0.15 0.15 96 1009.7
20260503031517 7 116 0.0 1.6 0.00 0.15 0.15 96 1009.8
20260503031013 7 55 0.0 0.0 0.00 0.15 0.15 96 1009.7
20260503030509 7 55 0.0 0.0 0.00 0.15 0.15 96 1009.7
20260503030007 7 76 0.0 3.2 0.00 0.15 0.15 96 1009.5
20260503025503 7 72 0.0 1.6 0.00 0.15 0.15 96 1009.7
20260503025001 7 69 0.0 0.0 0.00 0.15 0.15 95 1009.9
20260503024457 8 66 0.0 1.6 0.00 0.15 0.15 95 1009.6
20260503023954 8 89 0.0 1.6 0.00 0.15 0.15 95 1009.6
20260503023451 8 32 0.0 0.0 0.00 0.15 0.15 95 1009.6
20260503022948 8 76 0.0 0.0 0.00 0.15 0.15 95 1009.6
20260503022443 8 66 0.0 0.0 0.00 0.15 0.15 95 1009.6
20260503021939 8 290 0.0 1.6 0.00 0.15 0.15 95 1009.5
20260503021436 8 304 3.2 3.2 0.00 0.15 0.15 95 1009.6
20260503020933 8 76 0.0 1.6 0.00 0.15 0.15 94 1009.7
20260503020431 8 109 0.0 1.6 0.00 0.15 0.15 94 1009.8
20260503015927 8 89 0.0 1.6 0.00 0.15 0.15 94 1009.8
20260503015424 8 47 1.6 1.6 0.00 0.15 0.15 94 1009.8
20260503014920 8 165 1.6 3.2 0.00 0.15 0.15 94 1010.1
20260503014417 8 66 0.0 1.6 0.00 0.15 0.15 94 1009.8
20260503013915 8 116 0.0 0.0 0.00 0.15 0.15 93 1010.1
20260503013412 8 64 0.0 0.0 0.00 0.15 0.15 93 1009.9
20260503012909 8 55 0.0 0.0 0.00 0.15 0.15 93 1009.9
20260503012407 8 114 1.6 3.2 0.00 0.15 0.15 93 1009.9
20260503011903 8 94 3.2 3.2 0.00 0.15 0.15 93 1009.8
20260503011400 8 38 0.0 1.6 0.00 0.15 0.15 93 1009.7
20260503010857 8 166 0.0 1.6 0.00 0.15 0.15 93 1009.8
20260503010353 8 60 0.0 1.6 0.00 0.15 0.15 93 1009.7
20260503005850 8 59 0.0 0.0 0.00 0.15 0.15 92 1009.8
20260503005348 8 89 0.0 1.6 0.00 0.15 0.15 92 1009.7
20260503004844 8 76 0.0 1.6 0.00 0.15 0.15 91 1009.6
20260503004342 9 60 1.6 3.2 0.00 0.15 0.15 91 1009.5
20260503003839 9 65 3.2 4.8 0.00 0.15 0.15 91 1009.5
20260503003336 9 72 1.6 1.6 0.00 0.15 0.15 90 1009.5
20260503002833 9 76 0.0 0.0 0.00 0.15 0.15 90 1009.6
20260503002330 9 110 0.0 0.0 0.00 0.15 0.15 90 1009.4
20260503001826 10 114 0.0 1.6 0.00 0.15 0.15 89 1009.3
20260503001322 10 89 0.0 3.2 0.00 0.15 0.15 89 1009.4
20260503000820 10 77 1.6 1.6 0.00 0.15 0.15 88 1009.3
20260503000319 10 141 0.0 0.0 0.00 0.15 0.15 88 1009.3
20260502235814 10 150 0.0 0.0 0.00 0.15 0.15 88 1009.2
20260502235312 10 89 0.0 1.6 0.00 0.15 0.15 87 1009.1
20260502234808 10 189 0.0 1.6 0.00 0.15 0.15 87 1009.1
20260502234305 10 103 1.6 3.2 0.00 0.15 0.15 86 1009.0
20260502233801 10 75 1.6 3.2 0.00 0.15 0.15 86 1009.1
20260502233258 10 105 3.2 3.2 0.00 0.15 0.15 86 1009.1
20260502232754 10 205 0.0 1.6 0.00 0.15 0.15 85 1009.2
20260502232251 10 129 1.6 3.2 0.00 0.15 0.15 85 1009.1
20260502231748 10 114 3.2 3.2 0.00 0.15 0.15 86 1009.0
20260502231246 10 184 0.0 3.2 0.00 0.15 0.15 85 1009.0
20260502230744 10 199 3.2 3.2 0.00 0.15 0.15 85 1009.3
20260502230242 10 106 3.2 4.8 0.00 0.15 0.15 85 1009.1
20260502225738 10 184 0.0 3.2 0.00 0.15 0.15 85 1009.2
20260502225235 10 217 1.6 3.2 0.00 0.15 0.15 86 1009.0
20260502224731 10 182 3.2 4.8 0.00 0.15 0.15 86 1009.0
20260502224228 10 132 0.0 3.2 0.00 0.15 0.15 86 1008.7